sat.trackr.live / text

‹ back to catalog

GLOBALSTAR M084

NORAD 38040 · 2011-080A

PAYLOAD ACTIVE UNKNOWN

§ Identity

Operator
Country
GLOB
Launch date
2011-12-28
Launch site
TYMSC
Launch vehicle
Mass (kg)
RCS (m²)
4.60

Purposes: comms

External: N2YO · Heavens-Above · Gunter

§ Orbital elements

Epoch: 2026-05-25T03:15:46.021248Z

Period
114.08 min
Inclination
52.0008°
Eccentricity
0.0000774
Mean motion
12.62267171 rev/d
Perigee alt
1,413.0 km
Apogee alt
1,414.2 km
Semi-major
7,791.7 km
B*
7.4200e-5
RAAN
87.4564°
Arg perigee
50.6284°
Mean anomaly
322.6410°
Rev number
66,585

§ Raw data

GLOBALSTAR M0841 38040U 11080A   26145.13594932 -.00000090  00000+0  74200-4 0  99952 38040  52.0008  87.4564 0000774  50.6284 322.6410 12.62267171665852

JSON: /api/v1/satellites/38040 · /tle

For live sub-satellite position, see the globe view (requires WebGL).

§ Visibility from observer

Set your observer location to see the next 7 days of passes ≥ 10°. The values pass through the URL so the page stays shareable.

No JS? Fill the form by hand. The geolocation button needs JavaScript.